User: anonymous   Login
Location: Contre
(49.7477°N, 2.0963°E)
Time: 00:24:04
(UTC+00:00)
Language:

Envisat - Orbit

View from above orbital plane
View from above orbital plane
View from above satellite
View from above satellite

Ground track
Ground track

The orbit data is extracted from the following two-line orbital elements,

1 27386U 02009A   24103.50987632  .00000183  00000-0  73518-4 0  9997
2 27386  98.2766  66.9049 0001295  82.3902   7.4554 14.38536826159063
Epoch (UTC): 12 April 2024 12:14:13
Eccentricity: 0.0001295
inclination: 98.2766°
perigee height: 762 km
apogee height: 764 km
right ascension of ascending node: 66.9049°
argument of perigee: 82.3902°
revolutions per day: 14.38536826
mean anomaly at epoch: 7.4554°
orbit number at epoch: 15906

The dashed part of the orbit path shows where the satellite is in the earth's shadow,  

DLR